OK,72,41,709,72,2014-10-01T01:40:00,1,28072036,195178
OK,46,64,709,46,2014-10-01T01:45:00,0,28072479,195178
OK,46,64,709,46,2014-10-01T01:50:00,0,28072928,195178
OK,46,64,709,46,2014-10-01T01:55:00,0,28073375,195178
OK,46,64,709,46,2014-10-01T02:05:00,0,28074141,195178
OK,46,64,709,46,2014-10-01T02:10:00,0,28074590,195178
OK,46,64,709,46,2014-10-01T02:15:00,0,28075030,195178
OK,46,64,709,46,2014-10-01T02:20:00,0,28075479,195178
OK,46,64,709,46,2014-10-01T02:25:00,0,28075928,195178
OK,46,64,709,46,2014-10-01T02:30:00,0,28076311,195178
OK,46,64,709,46,2014-10-01T02:35:00,0,28076760,195178
OK,46,64,709,46,2014-10-01T02:40:00,0,28077209,195178
OK,46,64,709,46,2014-10-01T02:45:00,0,28077658,195178
OK,46,64,709,46,2014-10-01T02:50:00,0,28078061,195178
OK,66,45,709,66,2014-10-01T02:55:00,1,28078510,195178
OK,48,62,709,48,2014-10-01T03:00:00,3,28078955,195178
OK,45,66,709,45,2014-10-01T03:05:00,2,28079403,195178
OK,45,66,709,45,2014-10-01T03:10:00,0,28079846,195178
OK,52,57,709,52,2014-10-01T03:20:00,1,28080629,195178
OK,57,52,709,57,2014-10-01T03:25:00,0,28081078,195178
OK,57,52,709,57,2014-10-01T03:30:00,0,28081527,195178
OK,57,52,709,57,2014-10-01T03:35:00,2,28081974,195178
OK,50,59,709,50,2014-10-01T03:40:00,1,28082423,195178
OK,50,59,709,50,2014-10-01T03:45:00,1,28082856,195178
OK,50,59,709,50,2014-10-01T03:50:00,0,28083288,195178
OK,95,31,709,95,2014-10-01T03:55:00,3,28083737,195178
OK,95,31,709,95,2014-10-01T04:00:00,3,28084186,195178
OK,77,38,709,77,2014-10-01T04:05:00,1,28084627,195178
OK,69,43,709,69,2014-10-01T04:10:00,2,28085052,195178
OK,72,41,709,72,2014-10-01T04:15:00,5,28085501,195178
OK,61,48,709,61,2014-10-01T04:20:00,6,28085946,195178
OK,78,38,709,78,2014-10-01T04:25:00,6,28086395,195178
OK,85,35,709,85,2014-10-01T04:30:00,6,28086837,195178
OK,69,43,709,69,2014-10-01T04:35:00,2,28087286,195178
OK,84,35,709,84,2014-10-01T04:40:00,5,28087731,195178
OK,78,38,709,78,2014-10-01T04:45:00,4,28088180,195178
OK,90,33,709,90,2014-10-01T04:50:00,3,28088604,195178
OK,81,36,709,81,2014-10-01T04:55:00,7,28089053,195178
OK,78,38,709,78,2014-10-01T05:00:00,6,28089483,195178
OK,54,55,709,54,2014-10-01T05:05:00,7,28089932,195178
OK,67,44,709,67,2014-10-01T05:10:00,6,28090381,195178
OK,78,38,709,78,2014-10-01T05:15:00,9,28090725,195178
OK,86,34,709,86,2014-10-01T05:20:00,14,28091174,195178
OK,87,34,709,87,2014-10-01T05:25:00,13,28091623,195178
OK,87,34,709,87,2014-10-01T05:30:00,15,28092040,195178
OK,85,35,709,85,2014-10-01T05:35:00,17,28092489,195178
OK,82,36,709,82,2014-10-01T05:40:00,13,28092933,195178
OK,83,35,709,83,2014-10-01T05:45:00,7,28093374,195178
OK,100,29,709,100,2014-10-01T05:50:00,2,28093805,195178
OK,100,29,709,100,2014-10-01T05:55:00,11,28094254,195178
OK,94,31,709,94,2014-10-01T06:00:00,14,28094665,195178
OK,86,34,709,86,2014-10-01T06:05:00,11,28095110,195178
OK,87,34,709,87,2014-10-01T06:10:00,11,28095557,195178
OK,87,34,709,87,2014-10-01T06:15:00,13,28096006,195178
OK,94,31,709,94,2014-10-01T06:20:00,22,28096419,195178
OK,84,35,709,84,2014-10-01T06:25:00,27,28096868,195178
OK,77,38,709,77,2014-10-01T06:30:00,22,28097302,195178
OK,76,39,709,76,2014-10-01T06:35:00,13,28097751,195178
OK,56,53,709,56,2014-10-01T06:40:00,9,28098200,195178
OK,84,35,709,84,2014-10-01T06:45:00,14,28098637,195178
OK,79,37,709,79,2014-10-01T06:50:00,14,28099081,195178
OK,78,38,709,78,2014-10-01T06:55:00,8,28099528,195178
OK,82,36,709,82,2014-10-01T07:00:00,4,28099872,195178
OK,64,46,709,64,2014-10-01T07:10:00,6,28100628,195178
OK,85,35,709,85,2014-10-01T07:15:00,15,28101075,195178
OK,85,35,709,85,2014-10-01T07:20:00,9,28101448,195178
OK,67,44,709,67,2014-10-01T07:25:00,3,28101897,195178
OK,67,44,709,67,2014-10-01T07:30:00,7,28102333,195178
OK,70,42,709,70,2014-10-01T07:35:00,11,28102782,195178
OK,70,42,709,70,2014-10-01T07:40:00,12,28103209,195178
OK,85,35,709,85,2014-10-01T07:45:00,7,28103656,195178
OK,88,33,709,88,2014-10-01T07:50:00,5,28104101,195178
OK,81,36,709,81,2014-10-01T07:55:00,8,28104546,195178
OK,78,38,709,78,2014-10-01T08:00:00,7,28104987,195178
OK,79,37,709,79,2014-10-01T08:05:00,8,28105432,195178
OK,80,37,709,80,2014-10-01T08:10:00,10,28105872,195178
OK,69,43,709,69,2014-10-01T08:15:00,10,28106321,195178
OK,57,52,709,57,2014-10-01T08:20:00,10,28106758,195178
OK,76,39,709,76,2014-10-01T08:25:00,10,28107164,195178
OK,78,38,709,78,2014-10-01T08:30:00,6,28107596,195178
OK,82,36,709,82,2014-10-01T08:35:00,11,28108045,195178
OK,82,36,709,82,2014-10-01T08:40:00,12,28108484,195178
OK,78,38,709,78,2014-10-01T08:45:00,8,28108933,195178
OK,78,38,709,78,2014-10-01T08:50:00,7,28109361,195178
OK,81,36,709,81,2014-10-01T09:00:00,11,28110153,195178
OK,70,42,709,70,2014-10-01T09:05:00,2,28110602,195178
OK,55,54,709,55,2014-10-01T09:10:00,0,28111025,195178
OK,79,37,709,79,2014-10-01T09:15:00,6,28111474,195178
OK,68,43,709,68,2014-10-01T09:20:00,6,28111903,195178
OK,85,35,709,85,2014-10-01T09:30:00,5,28112693,195178
OK,75,39,709,75,2014-10-01T09:35:00,4,28113142,195178
OK,52,57,709,52,2014-10-01T09:40:00,5,28113566,195178
OK,60,49,709,60,2014-10-01T09:45:00,10,28114015,195178
OK,88,33,709,88,2014-10-01T09:50:00,8,28114447,195178
OK,74,40,709,74,2014-10-01T10:00:00,4,28115250,195178
OK,78,38,709,78,2014-10-01T10:05:00,3,28115699,195178
OK,78,38,709,78,2014-10-01T10:10:00,5,28116111,195178
OK,88,33,709,88,2014-10-01T10:15:00,5,28116560,195178
OK,79,37,709,79,2014-10-01T10:20:00,8,28116968,195178
OK,56,53,709,56,2014-10-01T10:25:00,13,28117417,195178
OK,50,59,709,50,2014-10-01T10:30:00,11,28117842,195178
OK,59,50,709,59,2014-10-01T10:35:00,7,28118291,195178
OK,57,52,709,57,2014-10-01T10:40:00,7,28118736,195178
OK,57,52,709,57,2014-10-01T10:45:00,6,28119183,195178
OK,60,49,709,60,2014-10-01T10:50:00,5,28119627,195178
OK,76,39,709,76,2014-10-01T10:55:00,6,28120075,195178
OK,76,39,709,76,2014-10-01T11:00:00,10,28120523,195178
OK,83,35,709,83,2014-10-01T11:05:00,6,28120972,195178
OK,82,36,709,82,2014-10-01T11:10:00,3,28121355,195178
OK,67,44,709,67,2014-10-01T11:15:00,2,28121804,195178
OK,86,34,709,86,2014-10-01T11:20:00,5,28122242,195178
OK,81,36,709,81,2014-10-01T11:25:00,14,28122691,195178
OK,78,38,709,78,2014-10-01T11:30:00,10,28123132,195178
OK,60,49,709,60,2014-10-01T11:35:00,6,28123581,195178
OK,87,34,709,87,2014-10-01T11:40:00,8,28124013,195178
OK,86,34,709,86,2014-10-01T11:45:00,8,28124462,195178
OK,85,35,709,85,2014-10-01T11:50:00,8,28124864,195178
OK,81,36,709,81,2014-10-01T11:55:00,12,28125313,195178
OK,84,35,709,84,2014-10-01T12:00:00,15,28125742,195178
OK,67,44,709,67,2014-10-01T12:10:00,12,28126543,195178
OK,54,55,709,54,2014-10-01T12:15:00,9,28126992,195178
OK,91,32,709,91,2014-10-01T12:20:00,4,28127441,195178
OK,80,37,709,80,2014-10-01T12:25:00,4,28127890,195178
OK,81,36,709,81,2014-10-01T12:30:00,7,28128318,195178
OK,83,35,709,83,2014-10-01T12:35:00,11,28128767,195178
OK,82,36,709,82,2014-10-01T12:40:00,12,28129202,195178
OK,83,35,709,83,2014-10-01T12:45:00,12,28129651,195178
OK,65,45,709,65,2014-10-01T12:50:00,10,28130085,195178
OK,74,40,709,74,2014-10-01T12:55:00,8,28130534,195178
OK,82,36,709,82,2014-10-01T13:00:00,5,28130962,195178
OK,84,35,709,84,2014-10-01T13:05:00,7,28131411,195178
OK,87,34,709,87,2014-10-01T13:10:00,10,28131848,195178
OK,81,36,709,81,2014-10-01T13:15:00,11,28132297,195178
OK,66,45,709,66,2014-10-01T13:20:00,7,28132735,195178
OK,67,44,709,67,2014-10-01T13:25:00,4,28133182,195178
OK,82,36,709,82,2014-10-01T13:30:00,9,28133620,195178
OK,90,33,709,90,2014-10-01T13:35:00,17,28134069,195178
OK,90,33,709,90,2014-10-01T13:40:00,11,28134508,195178
OK,85,35,709,85,2014-10-01T13:45:00,10,28134957,195178
OK,75,39,709,75,2014-10-01T13:50:00,8,28135376,195178
OK,75,39,709,75,2014-10-01T13:55:00,13,28135825,195178
OK,78,38,709,78,2014-10-01T14:00:00,12,28136262,195178
OK,58,51,709,58,2014-10-01T14:05:00,8,28136711,195178
OK,74,40,709,74,2014-10-01T14:10:00,10,28137151,195178
OK,86,34,709,86,2014-10-01T14:15:00,13,28137600,195178
OK,74,40,709,74,2014-10-01T14:20:00,10,28138034,195178
OK,73,40,709,73,2014-10-01T14:25:00,7,28138483,195178
OK,81,36,709,81,2014-10-01T14:30:00,4,28138911,195178
OK,76,39,709,76,2014-10-01T14:35:00,5,28139360,195178
OK,75,39,709,75,2014-10-01T14:40:00,7,28139771,195178
OK,77,38,709,77,2014-10-01T14:45:00,10,28140220,195178
OK,79,37,709,79,2014-10-01T14:50:00,8,28140662,195178
OK,74,40,709,74,2014-10-01T14:55:00,7,28141110,195178
OK,78,38,709,78,2014-10-01T15:00:00,9,28141537,195178
OK,82,36,709,82,2014-10-01T15:05:00,5,28141986,195178
OK,80,37,709,80,2014-10-01T15:10:00,5,28142414,195178
OK,66,45,709,66,2014-10-01T15:15:00,4,28142863,195178
OK,85,35,709,85,2014-10-01T15:20:00,2,28143290,195178
OK,91,32,709,91,2014-10-01T15:25:00,1,28143739,195178
OK,73,40,709,73,2014-10-01T15:30:00,1,28144187,195178
OK,73,40,709,73,2014-10-01T15:35:00,5,28144636,195178
OK,81,36,709,81,2014-10-01T15:40:00,6,28145057,195178
OK,65,45,709,65,2014-10-01T15:45:00,1,28145471,195178
OK,70,42,709,70,2014-10-01T15:50:00,6,28145920,195178
OK,79,37,709,79,2014-10-01T15:55:00,7,28146369,195178
OK,80,37,709,80,2014-10-01T16:00:00,6,28146818,195178
OK,87,34,709,87,2014-10-01T16:05:00,2,28147226,195178
OK,102,29,709,102,2014-10-01T16:10:00,2,28147670,195178
OK,82,36,709,82,2014-10-01T16:15:00,3,28148119,195178
OK,65,45,709,65,2014-10-01T16:20:00,2,28148520,195178
OK,68,43,709,68,2014-10-01T16:25:00,4,28148969,195178
OK,58,51,709,58,2014-10-01T16:30:00,2,28149408,195178
OK,103,28,709,103,2014-10-01T16:35:00,1,28149857,195178
OK,52,57,709,52,2014-10-01T16:40:00,4,28150283,195178
OK,47,63,709,47,2014-10-01T16:45:00,5,28150732,195178
OK,51,58,709,51,2014-10-01T16:50:00,3,28151150,195178
OK,52,57,709,52,2014-10-01T16:55:00,4,28151599,195178
OK,62,48,709,62,2014-10-01T17:05:00,1,28152048,195178
OK,77,38,709,77,2014-10-01T17:10:00,4,28152497,195178
OK,77,38,709,77,2014-10-01T17:15:00,4,28152943,195178
OK,78,38,709,78,2014-10-01T17:20:00,1,28153390,195178
OK,78,38,709,78,2014-10-01T17:25:00,0,28153839,195178
OK,78,38,709,78,2014-10-01T17:30:00,0,28154249,195178
OK,81,36,709,81,2014-10-01T17:35:00,2,28154698,195178
OK,81,36,709,81,2014-10-01T17:40:00,6,28155140,195178
OK,89,33,709,89,2014-10-01T17:45:00,5,28155588,195178
OK,68,43,709,68,2014-10-01T17:50:00,4,28156006,195178
OK,67,44,709,67,2014-10-01T17:55:00,2,28156455,195178
OK,79,37,709,79,2014-10-01T18:00:00,0,28156903,195178
OK,60,49,709,60,2014-10-01T18:05:00,1,28157342,195178
OK,69,43,709,69,2014-10-01T18:10:00,2,28157772,195178
OK,79,37,709,79,2014-10-01T18:15:00,0,28158220,195178
OK,79,37,709,79,2014-10-01T18:20:00,0,28158664,195178
OK,63,47,709,63,2014-10-01T18:25:00,2,28159109,195178
OK,63,47,709,63,2014-10-01T18:35:00,0,28159891,195178
OK,52,57,709,52,2014-10-01T18:40:00,2,28160340,195178
OK,65,45,709,65,2014-10-01T18:45:00,4,28160789,195178
OK,77,38,709,77,2014-10-01T18:50:00,3,28161227,195178
OK,66,45,709,66,2014-10-01T18:55:00,2,28161676,195178
OK,56,53,709,56,2014-10-01T19:00:00,3,28162093,195178
OK,48,62,709,48,2014-10-01T19:05:00,2,28162542,195178
OK,70,42,709,70,2014-10-01T19:10:00,4,28162936,195178
OK,110,27,709,110,2014-10-01T19:15:00,2,28163375,195178
OK,77,38,709,77,2014-10-01T19:20:00,1,28163823,195178
OK,77,38,709,77,2014-10-01T19:25:00,1,28164272,195178
OK,77,38,709,77,2014-10-01T19:30:00,0,28164703,195178
OK,77,38,709,77,2014-10-01T19:35:00,0,28165152,195178
OK,43,69,709,43,2014-10-01T19:40:00,2,28165577,195178
OK,46,64,709,46,2014-10-01T19:45:00,4,28166025,195178
OK,47,63,709,47,2014-10-01T19:55:00,1,28166828,195178
OK,62,48,709,62,2014-10-01T20:00:00,1,28167277,195178
OK,51,58,709,51,2014-10-01T20:05:00,2,28167705,195178
OK,71,41,709,71,2014-10-01T20:10:00,4,28168139,195178
OK,72,41,709,72,2014-10-01T20:15:00,3,28168588,195178
OK,72,41,709,72,2014-10-01T20:20:00,0,28169033,195178
OK,67,44,709,67,2014-10-01T20:25:00,1,28169482,195178
OK,67,44,709,67,2014-10-01T20:30:00,0,28169930,195178
OK,67,44,709,67,2014-10-01T20:35:00,0,28170356,195178
OK,54,55,709,54,2014-10-01T20:40:00,1,28170801,195178
OK,54,55,709,54,2014-10-01T20:45:00,1,28171249,195178
OK,71,41,709,71,2014-10-01T20:50:00,2,28171686,195178
OK,55,54,709,55,2014-10-01T20:55:00,3,28172132,195178
OK,55,54,709,55,2014-10-01T21:00:00,0,28172580,195178
OK,69,43,709,69,2014-10-01T21:05:00,1,28173026,195178
OK,69,43,709,69,2014-10-01T21:10:00,1,28173472,195178
OK,69,43,709,69,2014-10-01T21:15:00,0,28173920,195178
OK,69,43,709,69,2014-10-01T21:20:00,0,28174362,195178
OK,69,43,709,69,2014-10-01T21:25:00,0,28174811,195178
OK,78,38,709,78,2014-10-01T21:35:00,1,28175633,195178
OK,99,30,709,99,2014-10-01T21:40:00,1,28176082,195178
OK,99,30,709,99,2014-10-01T21:45:00,1,28176531,195178
OK,99,30,709,99,2014-10-01T21:50:00,0,28176980,195178
OK,43,69,709,43,2014-10-01T21:55:00,1,28177336,195178
OK,43,69,709,43,2014-10-01T22:00:00,0,28177776,195178
OK,43,69,709,43,2014-10-01T22:05:00,0,28178222,195178
OK,67,44,709,67,2014-10-01T22:10:00,1,28178671,195178
OK,67,44,709,67,2014-10-01T22:15:00,1,28179118,195178
OK,67,44,709,67,2014-10-01T22:20:00,0,28179552,195178
OK,80,37,709,80,2014-10-01T22:25:00,1,28179995,195178
OK,80,37,709,80,2014-10-01T22:30:00,0,28180441,195178
OK,80,37,709,80,2014-10-01T22:35:00,0,28180840,195178
OK,80,37,709,80,2014-10-01T22:45:00,0,28181713,195178
OK,80,37,709,80,2014-10-01T22:50:00,0,28182161,195178
OK,80,37,709,80,2014-10-01T22:55:00,0,28182608,195178
OK,56,53,709,56,2014-10-01T23:00:00,1,28183056,195178
OK,70,42,709,70,2014-10-01T23:10:00,1,28183907,195178
OK,70,42,709,70,2014-10-01T23:15:00,1,28184352,195178
OK,70,42,709,70,2014-10-01T23:20:00,0,28184800,195178
OK,70,42,709,70,2014-10-01T23:25:00,0,28185236,195178
OK,70,42,709,70,2014-10-01T23:30:00,0,28185680,195178
OK,70,42,709,70,2014-10-01T23:40:00,0,28186507,195178
OK,70,42,709,70,2014-10-01T23:45:00,0,28187347,195178
OK,70,42,709,70,2014-10-01T23:50:00,0,28187796,195178
OK,70,42,709,70,2014-10-01T23:55:00,0,28188237,195178
OK,70,42,709,70,2014-10-02T00:00:00,0,28188674,195178
OK,70,42,709,70,2014-10-02T00:10:00,0,28189122,195178
OK,70,42,709,70,2014-10-02T00:15:00,0,28189571,195178
OK,70,42,709,70,2014-10-02T00:20:00,0,28189993,195178
OK,70,42,709,70,2014-10-02T00:30:00,0,28190795,195178
OK,70,42,709,70,2014-10-02T00:35:00,0,28191244,195178
OK,70,42,709,70,2014-10-02T00:45:00,0,28191999,195178
OK,70,42,709,70,2014-10-02T00:50:00,0,28192448,195178
OK,70,42,709,70,2014-10-02T00:55:00,0,28192881,195178
OK,70,42,709,70,2014-10-02T01:05:00,0,28193692,195178
OK,70,42,709,70,2014-10-02T01:10:00,0,28194141,195178
OK,70,42,709,70,2014-10-02T01:15:00,0,28194590,195178
OK,70,42,709,70,2014-10-02T01:25:00,0,28195275,195178
OK,70,42,709,70,2014-10-02T01:30:00,0,28195724,195178
OK,70,42,709,70,2014-10-02T01:35:00,0,28196173,195178
OK,70,42,709,70,2014-10-02T01:40:00,0,28196457,195178
OK,70,42,709,70,2014-10-02T01:45:00,0,28196906,195178
OK,70,42,709,70,2014-10-02T01:50:00,0,28197329,195178
OK,70,42,709,70,2014-10-02T01:55:00,0,28197778,195178
OK,70,42,709,70,2014-10-02T02:00:00,0,28198226,195178
OK,70,42,709,70,2014-10-02T02:05:00,0,28198674,195178
OK,70,42,709,70,2014-10-02T02:10:00,0,28199123,195178
OK,70,42,709,70,2014-10-02T02:15:00,0,28199495,195178
OK,70,42,709,70,2014-10-02T02:20:00,0,28199937,195178
OK,70,42,709,70,2014-10-02T02:25:00,0,28200379,195178
OK,70,42,709,70,2014-10-02T02:30:00,0,28200822,195178
OK,70,42,709,70,2014-10-02T02:35:00,0,28201271,195178
OK,94,31,709,94,2014-10-02T02:45:00,0,28201702,195178
OK,94,31,709,94,2014-10-02T02:50:00,0,28202151,195178
OK,94,31,709,94,2014-10-02T02:55:00,0,28202600,195178
OK,94,31,709,94,2014-10-02T03:00:00,0,28203042,195178
OK,94,31,709,94,2014-10-02T03:05:00,0,28203490,195178
OK,94,31,709,94,2014-10-02T03:10:00,0,28203925,195178
OK,70,42,709,70,2014-10-02T03:30:00,2,28204374,195178
OK,60,49,709,60,2014-10-02T03:35:00,0,28204823,195178
OK,60,49,709,60,2014-10-02T03:40:00,0,28205272,195178
OK,60,49,709,60,2014-10-02T03:45:00,0,28205700,195178
OK,60,49,709,60,2014-10-02T03:50:00,0,28206127,195178
OK,60,49,709,60,2014-10-02T03:55:00,0,28206530,195178
OK,85,35,709,85,2014-10-02T04:00:00,2,28206979,195178
OK,85,35,709,85,2014-10-02T04:05:00,0,28207428,195178
OK,59,50,709,59,2014-10-02T04:10:00,2,28207847,195178
OK,64,46,709,64,2014-10-02T04:15:00,0,28208296,195178
OK,83,35,709,83,2014-10-02T04:20:00,3,28208723,195178
OK,86,34,709,86,2014-10-02T04:25:00,1,28209172,195178
OK,50,59,709,50,2014-10-02T04:30:00,5,28209610,195178
OK,76,39,709,76,2014-10-02T04:35:00,1,28210059,195178
OK,78,38,709,78,2014-10-02T04:40:00,3,28210482,195178
OK,78,38,709,78,2014-10-02T04:45:00,1,28210931,195178
OK,78,38,709,78,2014-10-02T04:50:00,0,28211356,195178
OK,85,35,709,85,2014-10-02T05:00:00,5,28212178,195178
OK,76,39,709,76,2014-10-02T05:05:00,7,28212627,195178
OK,52,57,709,52,2014-10-02T05:10:00,1,28213056,195178
OK,78,38,709,78,2014-10-02T05:15:00,7,28213505,195178
OK,67,44,709,67,2014-10-02T05:20:00,2,28213943,195178
OK,84,35,709,84,2014-10-02T05:25:00,10,28214392,195178
OK,71,41,709,71,2014-10-02T05:30:00,2,28214805,195178
OK,71,41,709,71,2014-10-02T05:35:00,0,28215254,195178
OK,91,32,709,91,2014-10-02T05:40:00,20,28215670,195178
OK,81,36,709,81,2014-10-02T05:45:00,6,28216119,195178
OK,97,30,709,97,2014-10-02T05:50:00,0,28216458,195178
OK,89,33,709,89,2014-10-02T05:55:00,12,28216898,195178
OK,81,36,709,81,2014-10-02T06:00:00,12,28217345,195178
OK,83,35,709,83,2014-10-02T06:05:00,12,28217794,195178
OK,98,30,709,98,2014-10-02T06:10:00,4,28218233,195178
OK,80,37,709,80,2014-10-02T06:15:00,9,28218682,195178
OK,84,35,709,84,2014-10-02T06:20:00,18,28219102,195178
OK,87,34,709,87,2014-10-02T06:30:00,14,28219924,195178
OK,80,37,709,80,2014-10-02T06:35:00,5,28220373,195178
OK,94,31,709,94,2014-10-02T06:40:00,6,28220807,195178
OK,88,33,709,88,2014-10-02T06:45:00,12,28221256,195178
OK,84,35,709,84,2014-10-02T07:00:00,14,28221923,195178
OK,82,36,709,82,2014-10-02T07:05:00,6,28222068,195178
OK,89,33,709,89,2014-10-02T07:10:00,2,28222517,195178
OK,88,33,709,88,2014-10-02T07:15:00,1,28222966,195178
OK,88,33,709,88,2014-10-02T07:20:00,0,28223397,195178
OK,88,33,709,88,2014-10-02T07:25:00,2,28223832,195178
OK,74,40,709,74,2014-10-02T07:35:00,2,28224635,195178
OK,78,38,709,78,2014-10-02T07:40:00,1,28225084,195178
OK,78,38,709,78,2014-10-02T07:45:00,0,28225493,195178
OK,77,38,709,77,2014-10-02T07:50:00,8,28225855,195178
OK,55,54,709,55,2014-10-02T07:55:00,6,28226304,195178
OK,53,56,709,53,2014-10-02T08:00:00,5,28226745,195178
OK,84,35,709,84,2014-10-02T08:05:00,5,28227194,195178
OK,84,35,709,84,2014-10-02T08:10:00,1,28227609,195178
OK,88,33,709,88,2014-10-02T08:20:00,0,28228417,195178
OK,84,35,709,84,2014-10-02T08:25:00,12,28228866,195178
OK,75,39,709,75,2014-10-02T08:30:00,8,28229276,195178
OK,82,36,709,82,2014-10-02T08:40:00,2,28230075,195178
OK,99,30,709,99,2014-10-02T08:45:00,0,28230524,195178
OK,90,33,709,90,2014-10-02T08:50:00,11,28230890,195178
OK,94,31,709,94,2014-10-02T08:55:00,3,28231337,195178
OK,81,36,709,81,2014-10-02T09:00:00,6,28231762,195178
OK,80,37,709,80,2014-10-02T09:15:00,10,28232553,195178
OK,81,36,709,81,2014-10-02T09:20:00,2,28233002,195178
OK,89,33,709,89,2014-10-02T09:25:00,9,28233451,195178
OK,108,27,709,108,2014-10-02T09:30:00,4,28233875,195178
OK,91,32,709,91,2014-10-02T09:40:00,0,28234657,195178
OK,80,37,709,80,2014-10-02T09:45:00,5,28235106,195178
OK,87,34,709,87,2014-10-02T09:50:00,2,28235533,195178
OK,83,35,709,83,2014-10-02T09:55:00,8,28235982,195178
OK,79,37,709,79,2014-10-02T10:00:00,2,28236425,195178
OK,83,35,709,83,2014-10-02T10:05:00,0,28236872,195178
OK,67,44,709,67,2014-10-02T10:10:00,6,28237274,195178
OK,73,40,709,73,2014-10-02T10:15:00,6,28237722,195178
OK,76,39,709,76,2014-10-02T10:20:00,16,28238171,195178
OK,72,41,709,72,2014-10-02T10:25:00,6,28238618,195178
OK,94,31,709,94,2014-10-02T10:30:00,0,28239059,195178
OK,56,53,709,56,2014-10-02T10:35:00,13,28239508,195178
OK,56,53,709,56,2014-10-02T10:40:00,11,28239938,195178
OK,82,36,709,82,2014-10-02T10:45:00,4,28240387,195178
OK,73,40,709,73,2014-10-02T10:50:00,2,28240831,195178
OK,77,38,709,77,2014-10-02T10:55:00,7,28241280,195178
OK,95,31,709,95,2014-10-02T11:00:00,0,28241712,195178
OK,95,31,709,95,2014-10-02T11:05:00,0,28242160,195178
OK,87,34,709,87,2014-10-02T11:10:00,7,28242556,195178
OK,87,34,709,87,2014-10-02T11:15:00,6,28243005,195178
OK,84,35,709,84,2014-10-02T11:20:00,4,28243454,195178
OK,94,31,709,94,2014-10-02T11:25:00,2,28243779,195178
OK,94,31,709,94,2014-10-02T11:30:00,0,28244217,195178
OK,81,36,709,81,2014-10-02T11:35:00,4,28244646,195178
OK,74,40,709,74,2014-10-02T11:40:00,3,28245095,195178
OK,72,41,709,72,2014-10-02T11:45:00,0,28245544,195178
OK,79,37,709,79,2014-10-02T11:50:00,9,28245950,195178
OK,88,33,709,88,2014-10-02T11:55:00,9,28246399,195178
OK,91,32,709,91,2014-10-02T12:00:00,7,28246836,195178
OK,86,34,709,86,2014-10-02T12:05:00,1,28247284,195178
OK,86,34,709,86,2014-10-02T12:10:00,0,28247731,195178
OK,86,34,709,86,2014-10-02T12:15:00,15,28248161,195178
OK,85,35,709,85,2014-10-02T12:20:00,6,28248610,195178
OK,82,36,709,82,2014-10-02T12:25:00,10,28249057,195178
OK,69,43,709,69,2014-10-02T12:30:00,3,28249485,195178
OK,87,34,709,87,2014-10-02T12:35:00,7,28249929,195178
OK,90,33,709,90,2014-10-02T12:40:00,2,28250313,195178
OK,81,36,709,81,2014-10-02T12:45:00,12,28251078,195178
OK,78,38,709,78,2014-10-02T13:20:00,6,28251606,195178
OK,87,34,709,87,2014-10-02T13:30:00,11,28252071,195178
OK,69,43,709,69,2014-10-02T13:35:00,5,28252208,195178
OK,56,53,709,56,2014-10-02T13:40:00,0,28252655,195178
OK,83,35,709,83,2014-10-02T13:45:00,13,28253094,195178
OK,83,35,709,83,2014-10-02T13:50:00,9,28253514,195178
OK,82,36,709,82,2014-10-02T13:55:00,4,28253963,195178
OK,84,35,709,84,2014-10-02T14:10:00,7,28254694,195178
OK,84,35,709,84,2014-10-02T14:15:00,6,28254817,195178
OK,83,35,709,83,2014-10-02T14:20:00,10,28255266,195178
OK,78,38,709,78,2014-10-02T14:25:00,4,28255715,195178
OK,88,33,709,88,2014-10-02T14:30:00,11,28256143,195178
OK,88,33,709,88,2014-10-02T14:35:00,8,28256592,195178
OK,89,33,709,89,2014-10-02T14:40:00,8,28257020,195178
OK,96,31,709,96,2014-10-02T14:45:00,3,28257469,195178
OK,85,35,709,85,2014-10-02T14:50:00,15,28257910,195178
OK,77,38,709,77,2014-10-02T14:55:00,11,28258358,195178
OK,75,39,709,75,2014-10-02T15:00:00,6,28258791,195178
OK,60,49,709,60,2014-10-02T15:05:00,3,28259237,195178
OK,67,44,709,67,2014-10-02T15:10:00,6,28259685,195178
OK,73,40,709,73,2014-10-02T15:15:00,11,28260133,195178
OK,75,39,709,75,2014-10-02T15:20:00,4,28260566,195178
OK,77,38,709,77,2014-10-02T15:25:00,6,28261013,195178
OK,85,35,709,85,2014-10-02T15:35:00,5,28261818,195178
OK,81,36,709,81,2014-10-02T15:40:00,1,28262267,195178
OK,87,34,709,87,2014-10-02T15:45:00,5,28262714,195178
OK,87,34,709,87,2014-10-02T15:50:00,3,28263160,195178
OK,92,32,709,92,2014-10-02T15:55:00,0,28263598,195178
OK,43,69,709,43,2014-10-02T16:05:00,4,28264441,195178
OK,47,63,709,47,2014-10-02T16:10:00,5,28264890,195178
OK,118,25,709,118,2014-10-02T16:15:00,2,28265328,195178
OK,68,43,709,68,2014-10-02T16:25:00,3,28266164,195178
OK,68,43,709,68,2014-10-02T16:30:00,3,28266613,195178
OK,68,43,709,68,2014-10-02T16:35:00,2,28267385,195178
OK,78,38,709,78,2014-10-02T16:45:00,2,28267834,195178
OK,70,42,709,70,2014-10-02T16:50:00,0,28268283,195178
OK,83,35,709,83,2014-10-02T16:55:00,4,28268725,195178
OK,96,31,709,96,2014-10-02T17:00:00,0,28269174,195178
OK,68,43,709,68,2014-10-02T17:05:00,2,28269623,195178
OK,68,43,709,68,2014-10-02T17:10:00,2,28270058,195178
OK,56,53,709,56,2014-10-02T17:15:00,0,28270507,195178
OK,51,58,709,51,2014-10-02T17:20:00,2,28270941,195178
OK,50,59,709,50,2014-10-02T17:25:00,0,28271390,195178
OK,80,37,709,80,2014-10-02T17:30:00,3,28271819,195178
OK,81,36,709,81,2014-10-02T17:35:00,1,28272268,195178